Weather History for Alicante, Spain

Change the Weather History Date:

Monday, January 13, 2014

  Actual Average Record
Temperature  
Mean Temperature 56 °F -  
Max Temperature 64 °F 60 °F 75 °F (2002)
Min Temperature 48 °F 42 °F 33 °F (2000)
Degree Days  
Heating Degree Days 9    
Growing Degree Days 6 (Base 50)    
Moisture  
Dew Point 45 °F    
Average Humidity 60    
Maximum Humidity 88    
Minimum Humidity 34    
Precipitation  
Precipitation 0.00 in - - ()
Sea Level Pressure  
Sea Level Pressure 30.13 in    
Wind  
Wind Speed 7 mph ()    
Max Wind Speed 24 mph    
Max Gust Speed 37 mph    
Visibility 7.3 miles    
Events      
Averages and records for this station are not official NWS values.
T = Trace of Precipitation, MM = Missing Value Source: Averaged Metar Reports

Daily Weather History Graph

Daily Weather History Graph

Search for Another Location

Airport:

Trip Planner

Search our weather history database for the weather conditions in past years. The results will help you decide how hot, cold, wet, or windy it might be!

Date:

Astronomy

Jan. 13, 2014 Rise Set
Actual Time 8:18 AM CET 6:03 PM CET
Civil Twilight 7:49 AM CET 6:32 PM CET
Nautical Twilight 7:16 AM CET 7:05 PM CET
Astronomical Twilight 6:44 AM CET 7:37 PM CET
Moon 4:06 PM CET (1/13) 5:55 AM CET (1/13)
Length of Visible Light 10h 43m
Length of Day
9h 45m
Waxing Gibbous, 93% of the Moon is Illuminated
Jan 13
Waxing Gibbous
Jan 16
Full
Jan 24
Last Quarter
Jan 30
New
Feb 6
First Quarter

Hourly Weather History & Observations

Time (CET) Temp. Dew Point Humidity Pressure Visibility Wind Dir Wind Speed Gust Speed Precip Events Conditions
12:00 AM 59 °F 47 °F 56% 30.23 in - West 12.7 mph - -  
12:00 AM 60.8 °F 50.0 °F 68% 30.21 in - WSW 11.5 mph - N/A   Clear
12:30 AM 60.8 °F 50.0 °F 68% 30.21 in - West 8.1 mph - N/A   Clear
1:00 AM 58 °F 48 °F 59% 30.21 in 9 mi West 5.8 mph - -   Partly Cloudy
1:00 AM 60.8 °F 50.0 °F 68% 30.21 in - West 5.8 mph - N/A   Clear
1:30 AM 59.0 °F 50.0 °F 72% 30.18 in - West 6.9 mph - N/A   Clear
2:00 AM 55 °F 47 °F 66% 30.20 in - WSW 6.9 mph - -  
2:00 AM 57.2 °F 50.0 °F 77% 30.18 in - WSW 6.9 mph - N/A   Clear
2:30 AM 59.0 °F 48.2 °F 67% 30.18 in - West 6.9 mph - N/A   Clear
3:00 AM 54 °F 46 °F 67% 30.19 in - SW 4.6 mph - -  
3:00 AM 57.2 °F 48.2 °F 72% 30.18 in - WSW 3.5 mph - N/A   Clear
3:30 AM 53.6 °F 48.2 °F 82% 30.18 in - West 3.5 mph - N/A   Clear
4:00 AM 49 °F 45 °F 80% 30.19 in 7 mi WSW 4.6 mph - -   Clear
4:00 AM 51.8 °F 46.4 °F 82% 30.18 in - WSW 3.5 mph - N/A   Clear
4:30 AM 50.0 °F 46.4 °F 87% 30.18 in - Variable 2.3 mph - N/A   Clear
5:00 AM 49 °F 44 °F 78% 30.18 in - WSW 5.8 mph - -  
5:00 AM 51.8 °F 46.4 °F 82% 30.15 in - SW 5.8 mph - N/A   Clear
5:30 AM 51.8 °F 48.2 °F 88% 30.15 in - WSW 4.6 mph - N/A   Clear
6:00 AM 50 °F 45 °F 76% 30.15 in - East 2.3 mph - -  
6:00 AM 51.8 °F 46.4 °F 82% 30.12 in - Variable 1.2 mph - N/A   Clear
6:30 AM 51.8 °F 48.2 °F 88% 30.15 in - Variable 1.2 mph - N/A   Clear
7:00 AM 54 °F 46 °F 65% 30.17 in 9 mi West 4.6 mph - -   Overcast
7:00 AM 57.2 °F 48.2 °F 72% 30.15 in - West 3.5 mph - N/A   Clear
7:30 AM 60.8 °F 46.4 °F 59% 30.15 in - WNW 10.4 mph - N/A   Clear
8:00 AM 56 °F 45 °F 57% 30.17 in - WNW 6.9 mph - -  
8:00 AM 59.0 °F 46.4 °F 63% 30.15 in 6.2 mi WNW 5.8 mph - N/A   Partly Cloudy
8:30 AM 60.8 °F 46.4 °F 59% 30.15 in 6.2 mi West 9.2 mph - N/A   Scattered Clouds
9:00 AM 58 °F 45 °F 53% 30.15 in - North 5.8 mph - -  
9:00 AM 60.8 °F 46.4 °F 59% 30.15 in 6.2 mi North 5.8 mph - N/A   Scattered Clouds
9:30 AM 57.2 °F 48.2 °F 72% 30.15 in 6.2 mi Variable 1.2 mph - N/A   Scattered Clouds
10:00 AM 56 °F 47 °F 64% 30.17 in 12 mi NW 1.2 mph - -   Scattered Clouds
10:00 AM 59.0 °F 50.0 °F 72% 30.15 in 6.2 mi Variable 1.2 mph - N/A   Partly Cloudy
10:30 AM 60.8 °F 50.0 °F 68% 30.15 in 6.2 mi Variable 1.2 mph - N/A   Partly Cloudy
11:00 AM 58 °F 48 °F 61% 30.17 in - South 5.8 mph - -  
11:00 AM 60.8 °F 50.0 °F 68% 30.15 in 6.2 mi South 5.8 mph - N/A   Partly Cloudy
11:30 AM 60.8 °F 48.2 °F 63% 30.15 in 6.2 mi WSW 5.8 mph - N/A   Partly Cloudy
12:00 PM 60 °F 46 °F 50% 30.15 in - WSW 8.1 mph - -  
12:00 PM 62.6 °F 48.2 °F 59% 30.12 in 6.2 mi WSW 6.9 mph - N/A   Partly Cloudy
12:30 PM 64.4 °F 48.2 °F 56% 30.12 in 6.2 mi WSW 5.8 mph - N/A   Partly Cloudy
1:00 PM 64 °F 46 °F 41% 30.12 in 12 mi West 11.5 mph - -   Scattered Clouds
1:00 PM 66.2 °F 48.2 °F 52% 30.09 in 6.2 mi West 6.9 mph - N/A   Partly Cloudy
1:30 PM 66.2 °F 48.2 °F 52% 30.09 in 6.2 mi WNW 10.4 mph - N/A   Partly Cloudy
2:00 PM 62 °F 43 °F 38% 30.10 in - NW 18.4 mph - -  
2:00 PM 64.4 °F 44.6 °F 49% 30.09 in 6.2 mi NW 16.1 mph - N/A   Partly Cloudy
2:30 PM 62.6 °F 44.6 °F 52% 30.09 in 6.2 mi WNW 20.7 mph 32.2 mph N/A   Partly Cloudy
3:00 PM 60 °F 43 °F 43% 30.07 in - WNW 24.2 mph - -  
3:00 PM 62.6 °F 46.4 °F 55% 30.06 in 6.2 mi WNW 23.0 mph 36.8 mph N/A   Scattered Clouds
3:30 PM 62.6 °F 44.6 °F 52% 30.06 in 6.2 mi WNW 18.4 mph - N/A   Partly Cloudy
4:00 PM 60 °F 43 °F 42% 30.06 in 19 mi WNW 12.7 mph - -   Overcast
4:00 PM 62.6 °F 44.6 °F 52% 30.04 in 6.2 mi WNW 12.7 mph - N/A   Scattered Clouds
4:30 PM 60.8 °F 46.4 °F 59% 30.04 in 6.2 mi WNW 11.5 mph - N/A   Scattered Clouds
5:00 PM 59 °F 44 °F 45% 30.05 in - West 6.9 mph - -  
5:00 PM 60.8 °F 46.4 °F 59% 30.04 in 6.2 mi West 8.1 mph - N/A   Scattered Clouds
5:30 PM 60.8 °F 44.6 °F 55% 30.04 in 6.2 mi WNW 9.2 mph - N/A   Partly Cloudy
6:00 PM 57 °F 43 °F 48% 30.06 in - West 5.8 mph - -  
6:00 PM 60.8 °F 44.6 °F 55% 30.04 in 6.2 mi West 5.8 mph - N/A   Partly Cloudy
6:30 PM 59.0 °F 42.8 °F 55% 30.04 in 6.2 mi West 10.4 mph - N/A   Partly Cloudy
7:00 PM 56 °F 38 °F 38% 30.07 in 12 mi WNW 13.8 mph - -   Scattered Clouds
7:00 PM 59.0 °F 39.2 °F 48% 30.06 in 6.2 mi WNW 12.7 mph - N/A   Partly Cloudy
7:30 PM 59.0 °F 39.2 °F 48% 30.06 in 6.2 mi WNW 15.0 mph - N/A   Partly Cloudy
8:00 PM 56 °F 36 °F 34% 30.10 in - WNW 12.7 mph - -  
8:00 PM 59.0 °F 37.4 °F 45% 30.09 in 6.2 mi WNW 16.1 mph - N/A   Partly Cloudy
8:30 PM 57.2 °F 39.2 °F 51% 30.09 in 6.2 mi West 15.0 mph - N/A   Partly Cloudy
9:00 PM 55 °F 36 °F 38% 30.12 in - West 11.5 mph - -  
9:00 PM 57.2 °F 39.2 °F 51% 30.09 in 6.2 mi West 11.5 mph - N/A   Partly Cloudy
9:30 PM 55.4 °F 39.2 °F 54% 30.09 in - West 10.4 mph - N/A   Clear
10:00 PM 53 °F 37 °F 43% 30.11 in 9 mi West 10.4 mph - -   Scattered Clouds
10:00 PM 55.4 °F 39.2 °F 54% 30.09 in - WSW 9.2 mph - N/A   Clear
10:30 PM 53.6 °F 39.2 °F 58% 30.09 in - West 9.2 mph - N/A   Clear
11:00 PM 51 °F 36 °F 45% 30.12 in - WSW 5.8 mph - -  
11:00 PM 53.6 °F 39.2 °F 58% 30.09 in - WSW 4.6 mph - N/A   Clear
11:30 PM 51.8 °F 37.4 °F 58% 30.09 in - SW 4.6 mph - N/A   Clear